K5RG-3 Weather Reports


time (UTC)temp
C
wind
direction
speed
KPH
gust
KPH
rain 1hr
cm
rain 24hr
cm
rain mn
cm
humidity
%
barometer
mb
20220927021533 28 54 8.0 19.3 0.00 0.00 0.00 47 1014.4
20220927020031 28 27 6.4 17.7 0.00 0.00 0.00 47 1014.2
20220927014542 28 14 9.7 17.7 0.00 0.00 0.00 47 1014.0
20220927013030 28 1 8.0 14.5 0.00 0.00 0.00 47 1013.7
20220927011544 28 334 3.2 12.9 0.00 0.00 0.00 49 1013.5
20220927010030 28 34 4.8 12.9 0.00 0.00 0.00 49 1013.2
20220927004528 29 348 3.2 9.7 0.00 0.00 0.00 47 1012.9
20220927003050 30 358 4.8 14.5 0.00 0.00 0.00 46 1012.7
20220927001527 30 14 6.4 16.1 0.00 0.00 0.00 45 1012.5
20220927000029 30 5 8.0 17.7 0.00 0.00 0.00 44 1012.3
20220926234526 31 19 6.4 14.5 0.00 0.00 0.00 45 1012.2
20220926233043 31 355 8.0 16.1 0.00 0.00 0.00 46 1012.1
20220926231526 32 358 8.0 16.1 0.00 0.00 0.00 45 1012.0
20220926230024 32 331 6.4 19.3 0.00 0.00 0.00 46 1011.9
20220926224522 32 348 8.0 20.9 0.00 0.00 0.00 47 1011.9
20220926223027 32 54 6.4 19.3 0.00 0.00 0.00 48 1011.8
20220926221521 32 17 11.3 22.5 0.00 0.00 0.00 48 1011.8
20220926220030 33 356 14.5 20.9 0.00 0.00 0.00 49 1011.6
20220926214528 33 333 11.3 22.5 0.00 0.00 0.00 50 1011.7
20220926213019 33 19 11.3 25.7 0.00 0.00 0.00 50 1011.7
20220926211526 33 13 8.0 19.3 0.00 0.00 0.00 51 1011.7
20220926210032 33 353 9.7 20.9 0.00 0.00 0.00 51 1011.8
20220926204517 33 6 9.7 24.1 0.00 0.00 0.00 50 1011.8
20220926203016 33 62 9.7 24.1 0.00 0.00 0.00 51 1011.8
20220926201515 33 33 8.0 19.3 0.00 0.00 0.00 51 1011.8
20220926200024 33 10 11.3 24.1 0.00 0.00 0.00 52 1011.9
20220926194512 33 15 4.8 24.1 0.00 0.00 0.00 51 1012.0
20220926193011 33 27 6.4 22.5 0.00 0.00 0.00 52 1012.1
20220926191510 33 303 16.1 22.5 0.00 0.00 0.00 51 1012.3
20220926190010 33 35 6.4 17.7 0.00 0.00 0.00 53 1012.6
20220926184507 33 345 6.4 19.3 0.00 0.00 0.00 53 1012.8
20220926183004 32 1 6.4 14.5 0.00 0.00 0.00 55 1012.9
20220926181618 32 344 4.8 19.3 0.00 0.00 0.00 58 1013.1
20220926180109 32 46 16.1 25.7 0.00 0.00 0.00 57 1013.2
20220926174559 31 55 8.0 19.3 0.00 0.00 0.00 59 1013.4
20220926173056 31 52 9.7 24.1 0.00 0.00 0.00 61 1013.5
20220926171556 31 69 14.5 22.5 0.00 0.00 0.00 61 1013.7
20220926170056 31 85 9.7 16.1 0.00 0.00 0.00 60 1013.8
20220926164639 31 67 3.2 11.3 0.00 0.00 0.00 62 1013.9
20220926163051 31 51 3.2 11.3 0.00 0.00 0.00 63 1014.0
20220926161551 30 343 3.2 14.5 0.00 0.00 0.00 61 1014.0
20220926160047 30 358 4.8 14.5 0.00 0.00 0.00 63 1014.2
20220926154545 30 2 4.8 12.9 0.00 0.00 0.00 63 1014.2
20220926153056 30 55 4.8 12.9 0.00 0.00 0.00 66 1014.1
20220926151541 30 321 6.4 12.9 0.00 0.00 0.00 65 1014.1
20220926150059 29 300 1.6 14.5 0.00 0.00 0.00 66 1014.0
20220926144540 29 348 4.8 8.0 0.00 0.00 0.00 68 1013.8
20220926143046 28 296 6.4 12.9 0.00 0.00 0.00 72 1013.7
20220926141535 28 306 3.2 11.3 0.00 0.00 0.00 75 1013.6
20220926140021 27 268 3.2 6.4 0.00 0.00 0.00 77 1013.5
20220926134517 26 275 4.8 11.3 0.00 0.00 0.00 80 1013.4
20220926133013 26 229 4.8 8.0 0.00 0.00 0.00 85 1013.4
20220926131510 25 257 3.2 6.4 0.00 0.00 0.00 87 1013.3
20220926130016 25 237 3.2 6.4 0.00 0.00 0.00 87 1013.2
20220926124505 25 258 1.6 6.4 0.00 0.00 0.00 87 1013.0
20220926123002 25 266 0.0 4.8 0.00 0.00 0.00 86 1012.9
20220926121600 25 266 3.2 6.4 0.00 0.00 0.00 86 1012.7
20220926120105 25 266 1.6 6.4 0.00 0.00 0.00 85 1012.7
20220926114605 25 282 3.2 6.4 0.00 0.00 0.00 85 1012.6
20220926113058 25 279 4.8 9.7 0.00 0.00 0.00 85 1012.5
20220926111633 25 291 3.2 12.9 0.00 0.00 0.00 84 1012.4
20220926110057 25 285 9.7 16.1 0.00 0.00 0.00 84 1012.4
20220926104629 25 259 6.4 12.9 0.00 0.00 0.00 83 1012.2
20220926103136 25 258 6.4 12.9 0.00 0.00 0.00 83 1012.1
20220926101600 25 307 4.8 12.9 0.00 0.00 0.00 83 1012.1
20220926100054 25 269 4.8 9.7 0.00 0.00 0.00 82 1012.1
20220926094600 25 266 6.4 14.5 0.00 0.00 0.00 82 1012.1
20220926093214 25 289 4.8 12.9 0.00 0.00 0.00 82 1012.1
20220926091553 25 281 4.8 11.3 0.00 0.00 0.00 82 1012.1
20220926090052 25 258 1.6 8.0 0.00 0.00 0.00 82 1012.2
20220926084554 25 262 3.2 8.0 0.00 0.00 0.00 82 1012.1
20220926083054 25 258 3.2 8.0 0.00 0.00 0.00 81 1012.2
20220926081552 25 253 4.8 11.3 0.00 0.00 0.00 81 1012.2
20220926080052 25 264 4.8 8.0 0.00 0.00 0.00 81 1012.2
20220926074548 25 275 3.2 9.7 0.00 0.00 0.00 81 1012.2
20220926073048 25 260 3.2 12.9 0.00 0.00 0.00 82 1012.2
20220926071551 25 255 4.8 11.3 0.00 0.00 0.00 83 1012.1
20220926070048 25 262 4.8 9.7 0.00 0.00 0.00 83 1012.2
20220926064555 25 251 3.2 9.7 0.00 0.00 0.00 83 1012.2
20220926063102 25 255 3.2 8.0 0.00 0.00 0.00 83 1012.3
20220926061543 25 252 4.8 12.9 0.00 0.00 0.00 82 1012.4
20220926060043 25 237 4.8 9.7 0.00 0.00 0.00 81 1012.5
20220926054603 25 234 3.2 9.7 0.00 0.00 0.00 81 1012.6
20220926053046 25 209 4.8 8.0 0.00 0.00 0.00 80 1012.6
20220926051542 25 251 3.2 6.4 0.00 0.00 0.00 80 1012.5
20220926050034 25 233 3.2 8.0 0.00 0.00 0.00 79 1012.6
20220926044534 25 228 4.8 8.0 0.00 0.00 0.00 78 1012.7
20220926043045 25 225 4.8 8.0 0.00 0.00 0.00 78 1012.6
20220926041541 26 204 3.2 6.4 0.00 0.00 0.00 77 1012.7
20220926040033 26 179 3.2 8.0 0.00 0.00 0.00 76 1012.6
20220926034537 26 185 1.6 6.4 0.00 0.00 0.00 75 1012.6
20220926033042 26 186 1.6 4.8 0.00 0.00 0.00 74 1012.4
20220926031531 27 175 4.8 6.4 0.00 0.00 0.00 73 1012.4
20220926030038 27 179 3.2 6.4 0.00 0.00 0.00 72 1012.2
20220926024530 27 190 1.6 8.0 0.00 0.00 0.00 72 1012.1